[[{"header":{"parameterUnit":"m.s-1","parameterCategory":1,"la1":30.2992,"la2":30.254,"lo1":-89.0895,"lo2":-89.0443,"dy":0.0025,"dx":0.0025,"nx":19,"ny":19,"refTime":"2026-04-11T09:00:00:Z","depth":0,"parameterNumber":2,"parameterNumberName":"U-component_of_WINDS"},"data":[0,0,0,-0.9955,-0.9956,-0.9976,-0.9976,-1.0014,-1.0014,0,0,0,0,0,0,0,0,0,0,0,-0.9955,-0.9955,-0.9955,-0.9956,-0.9976,-0.9976,-1.0014,-1.0014,0,0,0,0,0,0,0,0,0,0,0,-0.9954,-0.9955,-0.9955,-0.9956,-0.9976,-0.9976,-1.0014,-0.9995,0,0,0,0,0,0,0,0,0,0,-0.9973,-0.9977,-0.9955,-0.9955,-0.9956,-0.9976,-0.9976,-0.9993,-0.9996,-1.0009,0,-1.0021,0,-1.0019,-1.0018,-1.0018,0,0,0,-0.9952,-0.9975,-0.9976,-0.9955,-0.9956,-0.9976,-0.9966,-0.9995,-0.9997,-1.0012,-1.0022,-1.0023,-1.0019,-1.0018,-1.0018,-1.0107,-1.0107,0,0,-0.9951,-0.9961,-0.9974,-0.9978,-0.9974,-0.9965,-0.9967,-0.9996,-1.0008,-1.0022,-1.0024,-1.002,-1.0018,-1.0019,-1.0106,-1.0107,0,0,0,-0.995,-0.9961,-0.996,-0.9977,-0.9979,-0.9966,-0.9967,-1.0006,-1.0005,-1.0024,-1.002,-1.0018,-1.0019,-1.0106,-1.0107,-1.0147,0,0,0,-0.9949,-0.996,-0.996,-0.9967,-0.9979,-0.9993,-0.9977,-1.0003,-1.0006,-1.002,-1.0018,-1.0019,-1.0105,-1.0106,-1.0144,-1.0165,0,0,0,-0.9951,-0.9961,-0.9965,-0.9967,-0.9976,-0.9992,-0.9992,-1.0003,-1.0004,-1.0018,-1.002,-1.0104,-1.0106,-1.0142,-1.0161,-1.0193,0,0,0,-0.9957,-1.0,-0.9966,-1.0013,-0.9976,-1.0016,-0.9992,-1.0021,-1.0038,-1.0019,-1.0105,-1.0106,-1.0141,-1.0159,-1.019,-1.0222,-1.0235,0,0,-1.0018,-1.0008,-1.0035,-1.0005,-1.0054,-1.0012,-1.0068,-1.0073,-1.0064,-1.0094,-1.0096,-1.0145,-1.0161,-1.0192,-1.0307,-1.0318,0,0,0,-1.0058,-1.0078,-1.0089,-1.0105,-1.0109,-1.0116,-1.0111,-1.0114,-1.0138,-1.0081,-1.0164,-1.0173,-1.0191,-1.0206,-1.0215,-1.0231,-1.0113,-1.0113,-1.0113,-1.0161,-1.0148,-1.0192,-1.0182,-1.0198,-1.0194,-1.0206,-1.0209,-1.0191,-1.0211,-1.022,-1.0291,-1.0309,-1.0315,-1.0332,-1.0234,-1.0234,-1.0235,-1.0235,-1.025,-1.0277,-1.0252,-1.0287,-1.0274,-1.0303,-1.0301,-1.0288,-1.0315,-1.0283,-1.0298,-1.0265,-1.0328,-1.0342,-1.0238,-1.0237,-1.0237,-1.0236,-1.0236,-1.0317,-1.0328,-1.0329,-1.0352,-1.0372,-1.036,-1.0387,-1.0374,-1.0362,-1.0377,-1.0386,-1.0385,-1.0384,-1.0382,-1.0382,-1.0382,-1.0382,-1.0383,-1.0383,-1.0386,-1.0386,-1.041,-1.042,-1.0429,-1.044,-1.0437,-1.0447,-1.0454,-1.0442,-1.0442,-1.0424,-1.0336,-1.0315,-1.0387,-1.0386,-1.0385,-1.0385,-1.0385,-1.0484,-1.046,-1.0497,-1.0506,-1.0517,-1.0539,-1.0521,-1.0542,-1.0548,-1.0563,-1.0541,-1.0477,-1.0467,-1.0459,-1.0442,-1.0542,-1.0542,-1.0542,-1.0542,-1.0541,-1.0534,-1.057,-1.0586,-1.0601,-1.0589,-1.0634,-1.0633,-1.0628,-1.0631,-1.0615,-1.059,-1.0583,-1.0577,-1.0567,-1.055,-1.0676,-1.0676,-1.0676,-1.0602,-1.0596,-1.0635,-1.0629,-1.0638,-1.0646,-1.0688,-1.0709,-1.0699,-1.0682,-1.0634,-1.0629,-1.0589,-1.0576,-1.0559,-1.0543,-1.0513,0,0]},{"header":{"parameterUnit":"m.s-1","parameterCategory":1,"la1":30.2992,"la2":30.254,"lo1":-89.0895,"lo2":-89.0443,"dy":0.0025,"dx":0.0025,"nx":19,"ny":19,"refTime":"2026-04-11T09:00:00:Z","depth":0,"parameterNumber":3,"parameterNumberName":"V-component_of_WINDS"},"data":[0,0,0,2.2601,2.2601,2.2574,2.2574,2.2549,2.2549,0,0,0,0,0,0,0,0,0,0,0,2.2617,2.2617,2.2602,2.2601,2.2574,2.2574,2.2549,2.2549,0,0,0,0,0,0,0,0,0,0,0,2.2617,2.2617,2.2617,2.2601,2.2574,2.2574,2.2549,2.2566,0,0,0,0,0,0,0,0,0,0,2.259,2.2612,2.2617,2.2617,2.2601,2.2574,2.2574,2.2566,2.2565,2.2566,0,2.257,0,2.2559,2.2548,2.2548,0,0,0,2.2595,2.2613,2.26,2.2617,2.2601,2.2574,2.2585,2.2565,2.2564,2.2564,2.257,2.2569,2.2559,2.2548,2.2548,2.2577,2.2578,0,0,2.2597,2.2616,2.2601,2.2599,2.2605,2.2585,2.2584,2.2564,2.2571,2.257,2.2568,2.2559,2.2548,2.2548,2.2577,2.2577,0,0,0,2.2605,2.2617,2.2603,2.26,2.2594,2.2585,2.2583,2.2572,2.2566,2.2567,2.2558,2.2548,2.2548,2.2576,2.2577,2.2616,0,0,0,2.2606,2.2622,2.2604,2.2615,2.2595,2.2583,2.2592,2.2568,2.2565,2.2558,2.2548,2.2548,2.2576,2.2577,2.2614,2.2631,0,0,0,2.2616,2.2623,2.2621,2.2616,2.2606,2.2583,2.2576,2.2566,2.2559,2.2548,2.2548,2.2576,2.2577,2.2612,2.2628,2.2644,0,0,0,2.2632,2.2655,2.2622,2.2644,2.2606,2.2607,2.2576,2.2576,2.257,2.2548,2.2576,2.2577,2.2611,2.2626,2.2642,2.2662,2.2671,0,0,2.2672,2.2661,2.2672,2.2642,2.2654,2.261,2.2627,2.2605,2.2586,2.2581,2.2581,2.2614,2.2627,2.2644,2.2719,2.2727,0,0,0,2.2691,2.27,2.2699,2.2696,2.2679,2.2667,2.2639,2.2631,2.2626,2.2588,2.2624,2.2631,2.264,2.2648,2.2655,2.2661,2.2582,2.2582,2.2581,2.2774,2.275,2.2767,2.274,2.2737,2.2708,2.2703,2.2687,2.2662,2.2671,2.267,2.2719,2.2729,2.2734,2.2741,2.2678,2.2678,2.2678,2.2678,2.283,2.2839,2.2806,2.2812,2.2785,2.2789,2.2762,2.2745,2.2744,2.2718,2.2724,2.2698,2.2744,2.2748,2.2681,2.268,2.268,2.268,2.2679,2.2882,2.2882,2.2872,2.2864,2.2861,2.2831,2.2832,2.2808,2.2785,2.2791,2.2787,2.2786,2.2782,2.2791,2.2791,2.2791,2.2791,2.2791,2.2791,2.294,2.2927,2.2932,2.2916,2.2911,2.29,2.2872,2.2866,2.2852,2.2834,2.2834,2.2809,2.2753,2.2739,2.2794,2.2794,2.2793,2.2793,2.2793,2.3007,2.2988,2.2995,2.2989,2.2969,2.2967,2.2936,2.2925,2.2916,2.2917,2.289,2.2853,2.284,2.2834,2.2823,2.2896,2.2896,2.2896,2.2896,2.3051,2.3042,2.3043,2.3036,2.3026,2.2999,2.3007,2.2985,2.2958,2.2951,2.2937,2.292,2.2915,2.2904,2.2897,2.2887,2.2974,2.2974,2.2974,2.309,2.3079,2.3091,2.3066,2.3049,2.3034,2.304,2.3033,2.2999,2.2977,2.2945,2.2942,2.2914,2.2906,2.2884,2.2873,2.2853,0,0]}]]